Skip Page Navigation
NASA JPL Caltech
NASA Logo - Jet Propulsion Laboratory + View the NASA Portal
+ Center for Near-Earth Object Studies
JPL Home Earth Solar System Stars & Galaxies Technology
JPL Solar System Dynamics
BODIES ORBITS EPHEMERIDES TOOLS PHYSICAL DATA DISCOVERY FAQ SITE MAP
JPL Small-Body Database Browser
Search: [ help ]  
47074 (1998 XV95)
Classification: Main-belt Asteroid          SPK-ID: 2047074
Ephemeris | Orbit Diagram | Orbital Elements | Mission Design | Physical Parameters | Discovery Circumstances | Close-Approach Data ]

[ show orbit diagram ]
Orbital Elements at Epoch 2459000.5 (2020-May-31.0) TDB
Reference: JPL 32 (heliocentric ecliptic J2000)
 Element Value Uncertainty (1-sigma)   Units 
e .08898384705188334 3.6798e-08  
a 3.00936893726711 1.7712e-08 au
q 2.741583712030645 1.1366e-07 au
i 6.251395241218544 4.8134e-06 deg
node 195.7466822957348 3.7216e-05 deg
peri 245.1313753529287 4.7152e-05 deg
M 52.95528807699668 2.7235e-05 deg
tp 2458720.009335158696
(2019-Aug-24.50933516)
0.00014443 TDB
period 1906.828250958617
5.22
1.6834e-05
4.609e-08
d
yr
n .1887951889841247 1.6668e-09 deg/d
Q 3.277154162503574 1.9288e-08 au
  Orbit Determination Parameters
   # obs. used (total)      1673  
   data-arc span      8444 days (23.12 yr)  
   first obs. used      1997-10-04  
   last obs. used      2020-11-16  
   planetary ephem.      DE431  
   SB-pert. ephem.      SB431-N16  
   condition code      0  
   norm. resid. RMS      .50665  
   source      ORB  
   producer      Otto Matic  
   solution date      2020-Dec-17 21:23:43  

Additional Information
 Earth MOID = 1.7645 au 
 Jupiter MOID = 1.9604 au 
 T_jup = 3.235 
[ show covariance matrix ]

Ephemeris | Orbit Diagram | Orbital Elements | Mission Design | Physical Parameters | Discovery Circumstances | Close-Approach Data ]

Physical Parameter Table
Parameter Symbol Value Units Sigma Reference Notes
absolute magnitude H 13.7   n/a MPO337634  
diameter diameter 10.312 km 0.094 urn:nasa:pds:neowise_diameters_albedos::2.0[mainbelt] (http://adsabs.harvard.edu/abs/2011ApJ...741...68M)  
geometric albedo albedo 0.073   0.014 urn:nasa:pds:neowise_diameters_albedos::2.0[mainbelt] (http://adsabs.harvard.edu/abs/2011ApJ...741...68M)  

47074 (1998 XV95)          Discovered 1998-Dec-15 by LINEAR at Socorro
Reference: 20020921/Numbers.arcLast Updated: 2004-04-19

[ show close-approach data ]
Ephemeris | Orbit Diagram | Orbital Elements | Mission Design | Physical Parameters | Discovery Circumstances | Close-Approach Data ]
ABOUT SSD CREDITS/AWARDS PRIVACY/COPYRIGHT GLOSSARY LINKS
FirstGov 2021-Jan-19 19:31 UT
(server date/time)  
NASA Home Page
Site Manager:   Ryan S. Park
Webmaster  Alan B. Chamberlin